Regional Weather Roundup
Issued by NWS

Home | Current Version | Previous Version | Graphics & Text | Print | Product List | Glossary On
Versions: 1 2 3 4 5 6 7 8 9 10 11 12 13 14 15 16 17 18 19 20 21 22 23 24 25 26 27 28 29 30 31 32 33 34 35 36 37 38 39 40 41 42 43 44 45 46 47 48 49 50
000
ASUS43 KDTX 272201
RWRMI
MICHIGAN HOURLY REGIONAL WEATHER ROUNDUP
NATIONAL WEATHER SERVICE DETROIT/PONTIAC MI
500 PM EST TUE JAN 27 2015

NOTE: "FAIR" INDICATES FEW OR NO CLOUDS BELOW 12,000 FEET WITH NO
SIGNIFICANT WEATHER AND/OR OBSTRUCTION TO VISIBILITY.

MIZ047>049-052>055-059>063-066>070-074>076-081>083-272300-
SOUTHEAST LOWER MICHIGAN

CITY           SKY/WX    TMP DP  RH WIND       PRES   REMARKS
ADRIAN         CLEAR     25  11  55 N13       30.15R WCI  14
ALMA           CLEAR     25   7  46 NW5       30.20R WCI  19
ANN ARBOR      CLEAR     26  11  52 N13       30.15R WCI  15
BAD AXE        CLEAR     20  12  69 N12       30.18R WCI   9
CARO           CLOUDY    22  14  70 N9        30.18R WCI  12
DETROIT CITY   CLEAR     28  10  46 N8        30.15R WCI  20
DETROIT        PTCLDY    27  10  49 NW9       30.15R WCI  18
FLINT          PTCLDY    24  13  62 N12       30.18R WCI  13
GROSSE ILE     CLEAR     27  10  50 N6        30.13R WCI  20
HILLSDALE      CLEAR     25  11  55 N6        30.13R WCI  18
HOWELL         CLEAR     22  11  62 N9G16     30.16R WCI  12

CITY           SKY/WX    TMP DP  RH WIND       PRES   REMARKS
JACKSON        CLEAR     25  11  55 N7        30.15R WCI  17
LAMBERTVILLE   CLEAR     28  12  50 NW8       30.15R WCI  20
LANSING        CLEAR     24  11  57 N8        30.19R WCI  15
LAPEER         FAIR      22  11  62 N9        30.16R WCI  12
MASON          CLEAR     24  11  59 N9        30.16R WCI  14
MONROE         CLEAR     27  12  54 NW10      30.13R WCI  17
MT. CLEMENS    CLEAR     23  12  61 N16       30.13R WCI  10
PONTIAC        PTCLDY    24   9  52 N12       30.13R WCI  13
PORT HOPE        N/A     22  12  65 N13       30.17R WCI  10
PORT HURON     MOCLDY    21  14  73 N12       30.15R WCI   9
TRI CITIES     CLEAR     24  13  62 NE8       30.20R WCI  15
TROY           CLEAR     28   6  40 NW9       30.16R WCI  19
SAGINAW HB     CLEAR     23  14  68 NE9       30.21R WCI  13
$$
MIZ043>046-050>051-056>058-064>065-071>073-077>080-272300-
SOUTHWEST LOWER MICHIGAN

CITY           SKY/WX    TMP DP  RH WIND       PRES   REMARKS
BATTLE CREEK   CLEAR     27  10  49 N9        30.17R WCI  18
BENTON HARBOR  CLEAR     25  13  60 NW6       30.20R WCI  18
BIG RAPIDS     CLEAR     27   4  37 CALM      30.17S
COLDWATER      CLEAR     25  11  55 N7        30.15R WCI  18
FREMONT        FAIR      27   8  44 NW3       30.19S
HOLLAND        CLEAR     29  10  45 NE5       30.21R WCI  24
GRAND RAPIDS   CLEAR     28  10  46 N6        30.19R WCI  22
IONIA          FAIR      26   6  41 N8        30.17S WCI  18
KALAMAZOO      CLEAR     26  12  55 NW10      30.18R WCI  16
LUDINGTON      CLEAR     28  14  57 N7        30.22R WCI  20
MARSHALL       CLEAR     24  10  54 N3        30.16R
MOUNT PLEASANT CLEAR     26   3  38 CALM      30.18S
MUSKEGON       CLEAR     27  13  55 W7        30.21S WCI  19
SOUTH HAVEN    CLEAR     28  13  53 N7        30.20R WCI  21
$$
MIZ016>042-272300-
NORTHERN LOWER MICHIGAN

CITY           SKY/WX    TMP DP  RH WIND       PRES   REMARKS
ALPENA         CLEAR     18   5  57 N9        30.22R WCI   7
BEAVER ISLAND  CLEAR     18  -6  34 CALM      30.25R
BELLAIRE       CLEAR     25   0  34 NW5       30.23R WCI  19
CADILLAC       CLEAR     23   4  44 N5        30.15S WCI  17
CHARLEVOIX     CLEAR     20  11  70 NW6       30.27R WCI  12
FRANKFORT      CLEAR     25  14  63 N7        30.22S WCI  17
GAYLORD        CLEAR     21   0  39 NE5       30.16R WCI  15
GRAYLING       CLEAR     22   0  37 N5        30.18R WCI  16
HARBOR SPRINGS CLEAR     19   8  63 SW3       30.23R
HOUGHTON LAKE  CLEAR     24   0  35 N5        30.17R WCI  18
MANISTEE       CLEAR     27  12  54 NW7       30.22S WCI  19
OSCODA         CLEAR     21   8  58 N8        30.20R WCI  11
PELLSTON       CLEAR     19   4  51 N8        30.24R WCI   9
ROGERS CITY    CLEAR     19   8  62 NW3       30.24R
TRAVERSE CITY  CLEAR     24   6  46 N8        30.22R WCI  15
$$
MIZ007>008-015-272300-
EASTERN UPPER MICHIGAN

CITY           SKY/WX    TMP DP  RH WIND       PRES   REMARKS
KINROSS        CLEAR     19   1  45 N3        30.23R
MACKINAC ISLAN CLEAR     21  -4  34 CALM      30.23S
NEWBERRY       CLEAR     22  -5  30 CALM      30.21S
S. S. MARIE    CLEAR     18  -2  41 W6        30.24R WCI  10
MUNISING         N/A     23   9  55 CALM      30.22S
$$
MIZ004>006-011>014-085-272300-
CENTRAL UPPER MICHIGAN

CITY           SKY/WX    TMP DP  RH WIND       PRES   REMARKS
MANISTIQUE     CLEAR     20  11  69 S3        30.23S
ESCANABA       PTCLDY    23  14  68 S3        30.24S
MENOMINEE      CLOUDY    25  16  68 SE3       30.24R
SAWYER-GWINN   CLOUDY    23  16  74 SW6       30.18S WCI  16
$$
MIZ001>003-009>011-084-272300-
WESTERN UPPER MICHIGAN

CITY           SKY/WX    TMP DP  RH WIND       PRES   REMARKS
IRON MOUNTAIN  CLOUDY    24  16  71 SW5       30.19R WCI  18
HOUGHTON       CLOUDY    25  17  72 S7        30.16R WCI  17
COPPER HARBOR    N/A     26  18  71 CALM      30.20S
IRONWOOD       CLOUDY    27  21  80 SW6       30.14R WCI  20
$$

ABBREVIATIONS USED IN REMARKS
   TC - TEMPERATURE IN CELSIUS
  WCI - WIND CHILL INDEX
   HX - HEAT INDEX
  VSB - VISIBILITY



USA.gov is the U.S. government's official web portal to all federal, state and local government web resources and services.